[[{"header":{"parameterUnit":"m.s-1","parameterCategory":1,"la1":30.2991,"la2":30.254,"lo1":-89.0895,"lo2":-89.0444,"dy":0.0017,"dx":0.0017,"nx":28,"ny":28,"refTime":"2026-03-04T09:00:00:Z","depth":0,"parameterNumber":2,"parameterNumberName":"U-component_of_WINDS"},"data":[0,0,0,0,0,0,0,0,0,0,0,0,0,0,0,0,0,0,0,0,0,0,0,0,0,0,0,0,0,0,0,0,0,0,0,0,0,0,0,0,0,0,0,0,0,0,0,0,0,0,0,0,0,0,0,0,0,0,-4.6024,-4.6024,0,-4.6019,-4.6019,-4.6019,-4.5923,-4.5921,-4.5918,-4.5916,-4.591,-4.5912,-4.5914,0,0,0,0,0,0,0,0,0,0,0,0,0,-4.595,-4.5952,-4.6024,-4.6024,-4.6024,-4.6019,-4.6019,-4.6019,-4.5924,-4.5921,-4.5918,-4.5915,-4.5909,-4.5912,-4.5914,0,0,0,0,0,0,0,0,0,0,0,0,0,-4.5968,-4.5953,-4.6024,-4.5976,-4.5971,-4.6019,-4.6019,-4.6019,-4.5924,-4.5921,-4.5917,-4.5914,-4.5908,-4.5912,-4.5915,-4.6008,0,0,-4.5924,-4.5926,0,0,0,0,0,0,0,0,-4.5967,-4.597,-4.5983,-4.5979,-4.5974,-4.5968,-4.5991,-4.6015,-4.5925,-4.5942,-4.5916,-4.5912,-4.5932,-4.5933,-4.594,-4.6008,-4.6007,-4.5925,-4.5927,-4.5928,-4.5929,0,0,0,0,0,0,0,-4.5966,-4.597,-4.6022,-4.5983,-4.5978,-4.5954,-4.5953,-4.5995,-4.5958,-4.594,-4.5933,-4.5934,-4.5929,-4.5938,-4.5939,-4.6007,-4.5925,-4.5927,-4.5929,-4.5931,-4.6152,-4.6156,0,0,0,0,0,0,-4.5971,-4.597,-4.6022,-4.6022,-4.5962,-4.5959,-4.5957,-4.5974,-4.5957,-4.5951,-4.5938,-4.593,-4.5934,-4.5936,-4.5939,-4.6047,-4.5928,-4.5931,-4.5933,-4.6148,-4.6153,-4.6158,0,0,0,0,0,0,-4.597,-4.5977,-4.6022,-4.5994,-4.5998,-4.5964,-4.5984,-4.5976,-4.5984,-4.5955,-4.5948,-4.5953,-4.5931,-4.5934,-4.5992,-4.6046,-4.5932,-4.5935,-4.6144,-4.615,-4.6155,-4.6265,0,0,0,0,0,0,-4.5968,-4.5977,-4.6012,-4.5996,-4.6,-4.6076,-4.5987,-4.5978,-4.599,-4.598,-4.5967,-4.5962,-4.5928,-4.5988,-4.5995,-4.6048,-4.5938,-4.6139,-4.6146,-4.6153,-4.6256,-4.6273,-4.6289,0,0,0,0,0,-4.5966,-4.6042,-4.6014,-4.6021,-4.6043,-4.6079,-4.6081,-4.6042,-4.5995,-4.6029,-4.6011,-4.5962,-4.6039,-4.5994,-4.6002,-4.6056,-4.6135,-4.6144,-4.6153,-4.6249,-4.627,-4.6288,0,0,0,0,0,0,-4.6064,-4.6039,-4.6007,-4.608,-4.6083,-4.6063,-4.6105,-4.6065,-4.608,-4.607,-4.602,-4.6019,-4.6084,-4.6076,-4.6027,-4.6147,-4.6079,-4.609,-4.6149,-4.6169,-4.6185,-4.6184,-4.594,0,0,0,0,0,-4.6094,-4.6126,-4.6102,-4.6169,-4.6172,-4.6139,-4.6153,-4.6123,-4.6123,-4.6123,-4.6109,-4.611,-4.6135,-4.6152,-4.6173,-4.6255,-4.6251,-4.6297,-4.6313,-4.6327,-4.6336,-4.638,-4.64,-4.6187,-4.6187,-4.6187,0,0,-4.6157,-4.6147,-4.617,-4.6189,-4.6187,-4.6221,-4.614,-4.6179,-4.6203,-4.6128,-4.6182,-4.6172,-4.6171,-4.6242,-4.6272,-4.6237,-4.6395,-4.6338,-4.6349,-4.6351,-4.6391,-4.6411,-4.6429,-4.6193,-4.6192,-4.6191,0,0,-4.6287,-4.6283,-4.6339,-4.6339,-4.6338,-4.6316,-4.633,-4.6317,-4.6308,-4.6361,-4.6306,-4.6335,-4.6378,-4.6379,-4.6386,-4.6522,-4.6477,-4.653,-4.6614,-4.6657,-4.6674,-4.6689,-4.6737,-4.6754,-4.654,-4.654,-4.654,0,-4.6364,-4.6413,-4.6372,-4.6415,-4.6426,-4.6362,-4.6417,-4.642,-4.6426,-4.6434,-4.6396,-4.645,-4.6444,-4.6515,-4.6548,-4.6556,-4.657,-4.653,-4.6675,-4.6689,-4.6702,-4.6747,-4.6766,-4.6547,-4.6546,-4.6545,-4.6545,0,-4.6508,-4.6543,-4.6588,-4.6597,-4.6613,-4.6662,-4.6629,-4.665,-4.662,-4.6602,-4.6658,-4.665,-4.6668,-4.6683,-4.6653,-4.6751,-4.6729,-4.6684,-4.6614,-4.673,-4.6771,-4.6788,-4.6556,-4.6553,-4.6551,-4.655,0,0,-4.6696,-4.6684,-4.6701,-4.6705,-4.6701,-4.6727,-4.6775,-4.6794,-4.6813,-4.682,-4.6859,-4.6899,-4.6858,-4.6865,-4.6835,-4.6874,-4.6982,-4.6824,-4.6823,-4.6853,-4.7088,-4.7121,-4.7141,-4.6954,-4.6957,-4.6959,-4.7088,0,-4.6821,-4.6901,-4.6868,-4.6951,-4.6983,-4.6925,-4.6967,-4.6969,-4.6955,-4.698,-4.6964,-4.6993,-4.6937,-4.6942,-4.6977,-4.6961,-4.7028,-4.6952,-4.6988,-4.699,-4.6988,-4.7163,-4.7197,-4.7318,-4.7104,-4.7106,-4.7108,0,-4.6977,-4.6992,-4.7079,-4.7072,-4.7084,-4.7122,-4.7138,-4.7163,-4.7165,-4.7153,-4.7163,-4.7126,-4.7172,-4.7105,-4.7168,-4.7117,-4.7131,-4.7126,-4.7129,-4.7129,-4.7054,-4.7166,-4.7356,-4.7374,-4.7134,-4.7132,-4.713,0,-4.7104,-4.7147,-4.7205,-4.721,-4.7203,-4.7231,-4.7229,-4.7227,-4.7242,-4.7257,-4.7266,-4.7285,-4.7296,-4.7312,-4.7281,-4.7235,-4.7349,-4.7279,-4.7339,-4.734,-4.7363,-4.7361,-4.7556,-4.7375,-4.7375,-4.7375,-4.7374,0,-4.7246,-4.7301,-4.7262,-4.7297,-4.7358,-4.732,-4.7381,-4.7373,-4.7373,-4.7406,-4.7357,-4.7389,-4.7347,-4.7376,-4.7352,-4.7408,-4.7413,-4.7404,-4.7396,-4.7407,-4.7408,-4.7413,-4.7403,-4.7379,-4.7378,-4.7377,-4.7377,0,-4.7397,-4.7373,-4.7432,-4.7422,-4.742,-4.7466,-4.7456,-4.7489,-4.7473,-4.7515,-4.7523,-4.7498,-4.7529,-4.7501,-4.753,-4.7514,-4.7588,-4.757,-4.7588,-4.7582,-4.7643,-4.7637,-4.7845,-4.7871,-4.7676,-4.7678,-4.7679,0,-4.7487,-4.7529,-4.7524,-4.7543,-4.7545,-4.7577,-4.7592,-4.7557,-4.7575,-4.7583,-4.7614,-4.7642,-4.7661,-4.7713,-4.7697,-4.772,-4.77,-4.7772,-4.7703,-4.7713,-4.7699,-4.7697,-4.77,-4.7785,-4.7787,-4.7789,-4.7791,0,-4.7651,-4.7638,-4.7663,-4.7684,-4.7705,-4.7719,-4.773,-4.7749,-4.7713,-4.7736,-4.7768,-4.7783,-4.7815,-4.7842,-4.786,-4.7858,-4.7819,-4.7813,-4.7828,-4.7838,-4.7846,-4.7841,-4.7624,-4.7808,-4.7806,-4.7805,-4.7804,-4.7803,-4.7773,-4.7808,-4.7811,-4.784,-4.7846,-4.7858,-4.7888,-4.7878,-4.7904,-4.7927,-4.7905,-4.7944,-4.7947,-4.7967,-4.7971,-4.8,-4.797,-4.7991,-4.7996,-4.8002,-4.801,-4.7844,-4.8003,-4.8003,-4.8002,-4.8002,-4.8002,0,-4.7933,-4.7933,-4.7961,-4.7979,-4.8003,-4.7967,-4.7978,-4.8,-4.8035,-4.8042,-4.8063,-4.81,-4.8128,-4.8116,-4.8139,-4.8165,-4.8148,-4.8173,-4.8169,-4.8169,-4.8036,-4.8021,-4.8186,-4.8186,-4.8186,-4.8186,-4.8186,-4.8186,-4.8019,-4.8076,-4.8065,-4.8124,-4.8123,-4.8162,-4.8171,-4.8183,-4.8188,-4.8232,-4.8255,-4.8248,-4.8248,-4.8272,-4.8295,-4.8291,-4.8301,-4.8332,-4.8322,-4.8197,-4.8179,-4.8161,-4.8146,-4.8335,-4.8336,-4.8452,-4.8453,-4.8454]},{"header":{"parameterUnit":"m.s-1","parameterCategory":1,"la1":30.2991,"la2":30.254,"lo1":-89.0895,"lo2":-89.0444,"dy":0.0017,"dx":0.0017,"nx":28,"ny":28,"refTime":"2026-03-04T09:00:00:Z","depth":0,"parameterNumber":3,"parameterNumberName":"V-component_of_WINDS"},"data":[0,0,0,0,0,0,0,0,0,0,0,0,0,0,0,0,0,0,0,0,0,0,0,0,0,0,0,0,0,0,0,0,0,0,0,0,0,0,0,0,0,0,0,0,0,0,0,0,0,0,0,0,0,0,0,0,0,0,1.4131,1.4131,0,1.4141,1.4141,1.4141,1.4149,1.4149,1.4149,1.4149,1.4154,1.4155,1.4155,0,0,0,0,0,0,0,0,0,0,0,0,0,1.4117,1.4118,1.4131,1.4131,1.4131,1.4141,1.4141,1.4141,1.4149,1.4149,1.4149,1.4149,1.4154,1.4155,1.4155,0,0,0,0,0,0,0,0,0,0,0,0,0,1.4125,1.4118,1.4131,1.4136,1.4137,1.4141,1.4141,1.4141,1.4149,1.4149,1.4149,1.4149,1.4154,1.4154,1.4155,1.4152,0,0,1.4155,1.4155,0,0,0,0,0,0,0,0,1.4124,1.4125,1.4136,1.4136,1.4137,1.4144,1.4138,1.4145,1.4149,1.4144,1.4149,1.4149,1.4151,1.4151,1.4152,1.4152,1.4153,1.4155,1.4155,1.4155,1.4155,0,0,0,0,0,0,0,1.4124,1.4125,1.4135,1.4136,1.4136,1.4138,1.4139,1.4139,1.4146,1.4145,1.4145,1.4147,1.4151,1.4152,1.4152,1.4153,1.4155,1.4155,1.4155,1.4155,1.4155,1.4155,0,0,0,0,0,0,1.4123,1.4124,1.4134,1.4135,1.4131,1.4138,1.4139,1.4141,1.4146,1.4147,1.4146,1.4147,1.4152,1.4152,1.4153,1.4152,1.4155,1.4155,1.4155,1.4155,1.4155,1.4155,0,0,0,0,0,0,1.4123,1.4124,1.4134,1.413,1.4131,1.4138,1.414,1.4141,1.4143,1.4148,1.4149,1.4147,1.4152,1.4153,1.4153,1.4152,1.4155,1.4155,1.4155,1.4155,1.4155,1.415,0,0,0,0,0,0,1.4122,1.4124,1.4123,1.413,1.4132,1.4135,1.414,1.4142,1.4144,1.4144,1.4148,1.4149,1.4152,1.4153,1.4153,1.4153,1.4155,1.4155,1.4155,1.4155,1.415,1.415,1.4149,0,0,0,0,0,1.4122,1.4119,1.4123,1.4124,1.4131,1.4135,1.4136,1.4141,1.4143,1.4143,1.4147,1.4149,1.4153,1.4153,1.4153,1.4153,1.4155,1.4155,1.4155,1.415,1.415,1.4149,0,0,0,0,0,0,1.4109,1.412,1.4124,1.4124,1.4129,1.4136,1.4135,1.414,1.4142,1.4143,1.4148,1.4148,1.4149,1.4151,1.4151,1.4152,1.4154,1.4154,1.4151,1.415,1.415,1.4149,1.4155,0,0,0,0,0,1.4107,1.4111,1.4119,1.4119,1.4121,1.4128,1.413,1.4134,1.4138,1.414,1.4143,1.4146,1.4149,1.4149,1.4151,1.4151,1.4153,1.4151,1.415,1.415,1.415,1.4152,1.4152,1.4154,1.4154,1.4154,0,0,1.4102,1.4108,1.4109,1.4117,1.4121,1.4124,1.4129,1.4131,1.4134,1.4139,1.4141,1.4144,1.4148,1.4149,1.4149,1.415,1.415,1.415,1.4149,1.4149,1.4152,1.4151,1.4151,1.4154,1.4154,1.4154,0,0,1.4094,1.4099,1.41,1.4105,1.4112,1.4117,1.4118,1.4125,1.4128,1.4131,1.4136,1.4138,1.4141,1.4145,1.4147,1.4145,1.4147,1.4145,1.4142,1.4144,1.4144,1.4144,1.4145,1.4144,1.4145,1.4145,1.4145,0,1.4085,1.4091,1.41,1.4103,1.4107,1.4115,1.4116,1.412,1.4127,1.4129,1.4131,1.4137,1.414,1.4143,1.4143,1.4144,1.4145,1.4144,1.4144,1.4144,1.4144,1.4144,1.4144,1.4145,1.4145,1.4145,1.4145,0,1.4082,1.4086,1.4086,1.4096,1.4099,1.4101,1.411,1.4113,1.4117,1.4122,1.4126,1.4131,1.4135,1.4136,1.4139,1.414,1.4141,1.4143,1.4145,1.4143,1.4144,1.4144,1.4144,1.4144,1.4144,1.4145,0,0,1.4064,1.4081,1.4081,1.4087,1.4097,1.41,1.4103,1.411,1.4113,1.4118,1.4121,1.4125,1.4129,1.4131,1.4135,1.4137,1.4137,1.4139,1.414,1.414,1.414,1.4139,1.4139,1.414,1.414,1.414,1.414,0,1.4058,1.4066,1.4075,1.408,1.4085,1.4094,1.4097,1.4104,1.411,1.4114,1.412,1.4124,1.4127,1.4129,1.4131,1.4137,1.4137,1.4137,1.4142,1.4143,1.4141,1.4139,1.4137,1.4137,1.4141,1.4141,1.4141,0,1.4051,1.4059,1.4065,1.4078,1.4081,1.4083,1.4092,1.4096,1.4104,1.4108,1.4113,1.4119,1.4123,1.4126,1.4132,1.4132,1.4135,1.4138,1.4138,1.4139,1.4141,1.414,1.4137,1.4137,1.4141,1.4141,1.4141,0,1.4039,1.4051,1.4057,1.4061,1.4076,1.4078,1.4084,1.4093,1.4098,1.4105,1.4108,1.4114,1.4118,1.4123,1.413,1.4131,1.4137,1.4139,1.414,1.414,1.414,1.414,1.4139,1.4142,1.4142,1.4142,1.4142,0,1.4032,1.4035,1.4053,1.4056,1.4061,1.4072,1.4076,1.4082,1.4091,1.4096,1.4104,1.4108,1.4118,1.4123,1.4129,1.4134,1.4135,1.4139,1.414,1.4138,1.4138,1.414,1.4141,1.4142,1.4142,1.4142,1.4142,0,1.4018,1.403,1.4037,1.4052,1.4056,1.4059,1.4072,1.4076,1.4083,1.409,1.4092,1.4103,1.411,1.4119,1.4128,1.4132,1.4137,1.4139,1.4135,1.4136,1.4137,1.4137,1.4137,1.4138,1.414,1.414,1.414,0,1.4013,1.4016,1.4033,1.4038,1.4045,1.4052,1.4058,1.407,1.4075,1.4087,1.409,1.4098,1.4106,1.4117,1.4125,1.4133,1.4136,1.4135,1.4136,1.4135,1.4137,1.4137,1.4138,1.4134,1.4134,1.4134,1.4134,0,1.4002,1.4009,1.4018,1.403,1.4037,1.4046,1.4055,1.4059,1.4072,1.4078,1.4087,1.4093,1.4105,1.4113,1.4123,1.4128,1.4134,1.4134,1.4135,1.4133,1.4131,1.4133,1.4134,1.4134,1.4134,1.4134,1.4134,1.4134,1.3993,1.3998,1.4012,1.4022,1.4031,1.404,1.4046,1.4056,1.4064,1.4076,1.4082,1.4091,1.4102,1.4116,1.4122,1.4129,1.413,1.4131,1.4131,1.4131,1.4132,1.413,1.413,1.413,1.413,1.413,1.413,0,1.3984,1.3994,1.4004,1.4019,1.4027,1.4034,1.4046,1.4052,1.4061,1.4071,1.408,1.4091,1.41,1.4111,1.4121,1.4125,1.4128,1.4127,1.4127,1.4129,1.4129,1.4128,1.4125,1.4125,1.4125,1.4125,1.4125,1.4125,1.398,1.399,1.3998,1.4013,1.4022,1.4033,1.404,1.4049,1.4058,1.4071,1.408,1.4088,1.4098,1.411,1.4119,1.4122,1.4125,1.4124,1.4128,1.4128,1.4128,1.4129,1.4128,1.4125,1.4125,1.4127,1.4127,1.4127]}]]